Location: Kalberh�ni
(46.4610°N, 7.2453°E)
Time: 07:32:37
(UTC+00:00)

deb Kosmos-2227 - Pass Details

Date: 14 August 2022
Orbit: 774 x 865 km, 70.9° (Epoch: 26 September)

Event Time Altitude Azimuth Distance (km) Brightness Sun altitude
Rises 21:58:03 0° 339° (NNW) 3,333 ? -25.5°
Reaches altitude 10° 22:00:52 10° 352° (N) 2,414 ? -25.8°
Maximum altitude 22:05:27 26° 48° (NE) 1,584 ? -26.1°
Enters shadow 22:07:06 23° 75° (ENE) 1,721 ? -26.2°
